Simultaneous Nadir Overpasses (SNOs) Predictions

Prediction of SNOs between LANDSAT-8 and NOAA-19 Satellite Orbit:

Table of predicted SNOs for the next 14.0 days since TLE Epoch: 12/14/2019
Index Date (LANDSAT-8) Time (LANDSAT-8) Lat,Lon (LANDSAT-8) SZA (LANDSAT-8 ) Date (NOAA-19) Time (NOAA-19) Lat,Lon (NOAA-19) SZA (NOAA-19 ) Distance(km) Time Diff (sec)
1 12/15/2019 02:42:11 -79.34, -17.76 76.61 12/15/2019 02:42:04 -79.32, -17.88 76.64 3.18 7
2 12/17/2019 08:15:54 79.34, 78.83 103.48 12/17/2019 08:15:29 79.33, 78.74 103.46 2.19 25
3 12/17/2019 09:05:22 -79.31,-113.73 76.57 12/17/2019 09:06:25 -79.30,-113.76 76.55 0.72 63
4 12/19/2019 13:49:38 -79.35, 175.50 76.46 12/19/2019 13:48:47 -79.34, 175.39 76.49 2.55 51
5 12/19/2019 14:39:05 79.31, -17.17 103.48 12/19/2019 14:39:50 79.31, -17.03 103.50 2.74 45
6 12/21/2019 19:23:21 79.35, -87.96 103.55 12/21/2019 19:22:13 79.36, -88.07 103.53 2.72 68
7 12/21/2019 20:12:49 -79.32, 79.50 76.50 12/21/2019 20:13:08 -79.33, 79.49 76.48 0.96 19
8 12/24/2019 01:46:31 79.35, 176.27 103.52 12/24/2019 01:46:34 79.34, 176.12 103.50 3.28 3
9 12/26/2019 07:20:16 -79.33, -87.31 76.59 12/26/2019 07:19:51 -79.36, -87.29 76.56 3.54 25




NCC Satellite Simultaneous Nadir Overpasses (SNOs) Prediction Service
